RH
48 30 21 19 22 27 34 44 50 49 45 48 74 96 84 70 72 72 65 62 70 72 51 30 25 21 23 26 21 21 21 17 18 21 20 18 17 18 17 15 17 17 18 19 18 19 21 19 19 20 29 46 46 32 27 27 22 19 23 24 20 23 28 28 24 23 22 17 11 12 13 13 15 14 12 14 13 14 21 29 33 27 28 35 26 30 60
43 24 21 21 24 32 41 50 52 52 52 52 71 90 75 61 70 73 66 66 75 76 52 28 24 25 30 31 23 22 23 19 21 21 19 21 21 22 21 17 18 18 17 19 18 20 25 25 20 19 34 57 55 36 30 29 24 26 38 40 29 27 31 30 29 30 30 29 23 19 16 15 18 16 14 15 14 18 25 29 33 30 28 33 30 35 61
36 21 22 23 27 39 49 54 54 54 56 55 68 88 77 58 61 66 68 75 74 65 47 30 24 28 37 35 27 28 25 21 25 24 22 24 23 25 25 20 19 18 17 19 18 17 23 27 25 22 33 46 42 34 33 31 32 42 50 46 35 31 31 28 30 33 36 42 40 33 27 21 17 17 19 20 18 21 25 27 32 35 29 24 23 37 66
30 21 22 25 33 47 54 57 56 55 57 54 61 84 79 56 52 57 60 65 61 50 39 33 28 27 34 33 29 31 29 25 26 24 24 26 22 23 25 20 21 19 17 22 22 16 17 23 26 25 36 45 36 32 38 37 41 52 53 44 35 35 38 36 38 40 39 43 43 38 36 32 23 19 23 27 24 24 28 28 29 32 32 31 33 46 72
27 21 25 29 39 53 58 57 56 56 56 52 63 89 85 56 43 46 50 49 46 41 31 27 29 28 29 32 31 31 30 27 26 24 24 25 22 24 23 20 22 22 23 28 27 21 18 20 23 22 35 55 51 37 36 40 46 49 44 40 40 45 46 42 47 53 43 36 37 34 34 41 45 40 33 30 26 30 39 35 29 34 36 40 50 58 66
25 23 27 33 45 59 60 56 57 59 55 53 70 87 74 50 40 40 43 40 34 35 29 23 29 31 29 33 37 35 31 29 31 29 25 24 23 26 27 23 20 20 23 28 29 29 25 22 28 28 28 46 57 46 37 42 47 45 41 42 51 62 59 45 48 55 45 35 36 37 37 43 54 57 49 39 36 41 47 40 35 41 41 45 62 68 63
24 25 29 38 52 60 60 55 57 64 62 61 78 83 59 44 41 37 39 38 31 34 34 28 31 32 30 34 37 37 34 32 31 27 28 28 23 24 30 27 20 17 19 22 29 39 39 35 42 45 39 44 53 53 53 51 43 41 47 50 53 63 69 63 58 56 50 46 41 39 43 45 46 50 48 45 46 49 52 51 50 51 49 54 68 77 75
25 29 32 44 57 60 59 56 55 64 70 71 82 82 59 44 40 34 33 33 32 34 34 32 33 34 34 36 36 36 35 33 31 25 28 36 30 25 30 27 19 19 20 23 31 40 44 44 46 47 47 47 48 57 70 66 47 42 50 54 53 58 64 67 66 59 55 53 45 41 52 58 52 50 50 49 50 52 56 59 59 58 61 66 72 82 89
28 32 36 48 59 59 56 55 52 57 67 75 82 77 61 51 46 39 31 27 29 32 29 30 34 32 35 38 36 37 36 33 34 29 23 30 32 27 28 28 24 24 25 27 31 32 33 37 36 34 37 40 40 46 52 49 45 49 53 55 55 56 55 56 63 67 61 54 48 45 52 60 58 57 63 62 56 55 57 59 61 65 74 77 72 73 81
31 34 40 50 58 57 55 54 52 51 58 75 84 71 56 50 45 39 36 30 26 27 25 27 31 30 35 39 36 37 35 27 31 36 27 23 26 25 27 31 31 31 32 33 33 31 30 30 28 27 28 29 31 34 34 31 36 47 53 54 53 56 57 55 63 74 66 55 52 50 51 62 69 71 72 69 63 59 57 58 63 67 70 71 66 64 71
32 34 42 52 56 55 53 51 52 50 53 70 82 74 61 55 44 33 30 28 23 23 22 23 28 33 36 36 34 34 33 26 27 36 33 24 24 25 26 29 32 33 35 35 33 31 30 29 28 27 25 25 28 32 35 35 33 36 45 52 54 59 62 65 74 78 68 60 60 60 62 71 80 80 74 69 68 66 63 67 69 66 63 63 64 67 71
32 35 44 53 55 53 52 51 50 49 48 52 63 73 75 69 54 34 24 24 24 22 22 23 28 34 32 29 30 31 31 30 29 33 36 33 30 27 25 27 32 33 32 31 29 28 29 28 26 25 23 24 28 30 33 39 36 32 36 43 51 59 64 69 74 68 63 68 72 74 78 80 79 77 69 66 66 64 66 74 73 66 64 64 68 73 73
32 37 46 54 54 52 51 50 48 48 47 41 47 70 83 72 56 39 24 22 24 23 24 24 24 28 28 27 30 29 27 29 30 31 36 38 35 31 27 27 30 30 28 28 26 26 28 28 27 28 24 21 26 30 33 39 41 36 35 37 44 54 60 65 68 65 68 76 76 78 85 85 80 74 67 67 68 66 70 78 79 74 68 67 73 78 77
33 39 49 53 54 53 50 48 47 46 46 43 43 62 76 68 58 48 29 20 23 24 23 23 22 25 29 29 27 26 25 28 31 31 34 38 36 33 29 27 26 27 27 27 26 26 28 31 35 39 33 28 36 41 37 39 42 42 43 44 45 52 60 67 72 71 68 70 74 80 87 88 86 80 76 79 81 78 76 77 79 77 70 68 75 79 79
34 41 52 55 54 54 48 45 48 49 47 45 42 53 70 67 57 51 38 24 23 24 24 27 29 28 29 27 24 23 24 26 28 29 31 35 35 31 29 27 26 27 27 26 27 28 30 34 40 46 45 42 47 48 41 40 41 39 44 47 44 50 64 76 80 71 60 63 73 75 76 85 88 79 73 78 82 80 78 77 79 78 72 72 76 78 82
37 44 53 56 54 53 47 40 44 52 53 50 46 54 67 60 46 45 42 28 23 26 28 31 33 28 24 23 22 23 25 24 24 24 25 28 28 26 26 26 28 30 28 25 26 28 32 38 44 50 51 49 50 49 46 47 45 39 40 44 44 50 60 70 74 67 61 67 68 61 69 87 90 75 65 67 74 77 78 82 86 82 74 75 79 81 85
40 47 54 56 53 50 45 35 32 39 45 47 51 60 59 46 37 41 41 29 24 27 26 27 31 28 23 23 23 23 24 23 21 22 23 24 22 19 20 24 28 29 27 27 28 29 32 37 42 47 47 44 52 58 56 56 57 49 42 44 51 55 54 57 62 60 61 68 65 66 82 91 84 74 66 64 73 77 79 87 93 85 79 81 83 84 87
42 50 53 55 53 47 43 35 26 27 28 28 39 54 47 30 28 37 37 28 24 24 23 26 31 30 25 25 25 24 26 27 24 21 20 19 17 18 19 22 27 29 28 29 32 33 34 35 40 50 53 47 51 59 59 59 59 53 46 46 52 54 49 50 55 54 58 65 63 71 89 88 76 74 70 68 78 82 82 90 93 85 82 85 86 88 92
44 51 52 52 50 45 43 36 29 29 25 18 30 47 39 22 23 34 35 27 22 23 25 27 29 28 28 29 28 26 29 31 28 23 21 22 22 21 22 25 28 29 28 29 31 31 34 33 34 46 56 53 48 50 52 52 50 49 51 50 52 57 53 48 49 49 53 58 59 71 91 88 76 75 73 74 84 89 88 92 89 82 83 85 88 94 97
44 50 50 49 46 44 42 34 28 28 24 21 33 44 33 20 25 36 36 28 23 24 27 27 26 27 29 31 32 30 29 30 30 25 23 26 27 26 30 34 32 29 28 32 33 30 32 35 33 37 44 46 46 45 45 46 42 44 53 56 58 65 61 54 56 58 54 55 61 77 92 88 76 75 76 79 87 92 92 90 83 81 84 86 92 99 97
44 49 49 48 45 43 39 32 27 26 23 25 36 40 28 21 27 35 33 27 24 26 27 27 25 25 27 29 31 30 28 27 31 31 30 29 29 33 39 38 33 31 30 31 31 29 31 35 36 40 43 45 49 51 49 50 49 43 45 53 63 68 64 63 72 73 64 65 76 87 91 85 80 82 85 90 95 95 93 90 84 82 84 88 96 101 99
43 49 49 47 44 41 37 32 29 30 30 34 39 38 32 29 32 36 34 28 27 28 28 27 26 24 25 26 27 28 27 25 29 40 45 37 28 32 37 35 34 37 37 41 44 36 30 32 36 41 45 46 53 58 54 56 61 54 47 53 67 73 69 70 80 82 77 82 90 90 86 84 85 90 94 98 98 92 87 86 82 79 81 87 96 101 100
41 48 48 45 42 38 35 32 31 32 35 38 38 34 33 35 36 36 33 28 29 30 29 28 26 24 24 23 23 26 26 22 22 30 40 40 31 28 32 35 40 40 39 52 60 44 30 34 37 40 46 49 53 58 57 58 62 62 58 60 66 68 66 68 76 78 77 82 88 86 85 87 91 96 100 100 96 86 78 76 74 74 79 87 95 98 97
40 46 45 40 36 37 35 30 29 30 31 37 40 38 37 38 37 32 30 30 30 29 28 27 25 23 23 22 21 22 24 24 20 19 30 43 39 29 29 37 47 44 38 46 52 39 31 36 36 40 51 52 48 50 56 62 63 60 61 64 61 58 57 60 67 71 76 87 91 88 89 93 94 96 99 99 95 87 77 73 72 73 79 86 88 88 87
35 36 33 28 28 34 35 31 30 29 26 30 37 38 40 46 46 38 31 29 28 25 24 27 26 24 22 21 20 22 25 26 25 24 33 43 40 34 34 39 45 46 42 42 39 32 32 35 35 40 48 46 42 43 49 57 59 54 57 63 60 54 53 56 63 70 79 88 89 86 91 98 98 98 100 99 97 92 86 80 75 72 74 75 73 71 70
24 25 27 26 27 31 34 33 32 29 28 34 39 39 39 44 48 46 36 26 23 24 24 26 25 23 23 23 23 26 26 26 26 28 34 37 38 41 43 41 41 42 40 36 34 31 30 31 32 37 40 38 40 44 46 49 52 52 56 59 52 48 53 57 63 73 79 77 70 69 80 93 97 99 99 97 95 92 85 78 73 70 70 69 67 65 63
20 26 33 34 31 31 35 36 33 28 31 40 46 46 42 37 39 49 47 34 26 25 24 24 24 23 24 24 23 25 26 24 24 27 30 33 37 42 43 38 35 35 32 31 32 32 32 33 32 34 35 34 35 40 43 45 47 52 58 56 49 52 58 58 64 77 81 71 59 55 65 80 91 96 94 90 87 83 75 67 63 60 58 58 58 62 63
23 31 37 36 33 34 37 37 35 30 28 32 37 41 43 39 36 40 42 38 33 27 23 24 26 26 26 25 23 24 26 26 25 26 28 31 35 39 39 35 31 30 28 27 29 29 30 32 30 28 30 33 34 37 40 42 48 57 60 54 52 57 58 53 57 67 69 62 56 54 59 67 77 84 87 87 86 84 81 77 75 70 64 60 60 65 68
23 31 36 35 33 36 38 37 36 30 24 30 39 39 38 41 40 32 28 35 39 30 23 27 29 29 29 26 22 24 28 29 30 30 30 33 35 35 35 33 30 29 27 25 26 28 30 33 32 31 36 40 35 32 36 44 55 62 57 48 45 48 49 47 49 52 53 53 55 58 60 62 64 67 70 74 79 83 86 87 87 84 78 73 72 73 73
21 27 33 33 31 34 36 38 40 32 24 33 43 37 28 33 38 31 26 34 38 30 23 26 29 31 33 29 23 24 28 31 33 33 31 33 33 30 30 29 27 26 25 23 23 25 27 30 32 33 37 36 29 26 34 44 51 54 49 44 42 43 44 46 46 44 45 48 48 50 53 56 56 56 56 58 63 71 78 81 82 79 75 71 68 65 62
19 23 29 32 32 31 33 37 39 34 34 43 46 35 28 31 35 31 27 32 37 32 24 24 26 27 30 30 25 24 26 30 33 33 31 31 31 29 29 28 26 25 25 24 24 24 24 26 28 28 29 28 25 26 33 42 49 49 43 41 41 40 40 42 42 42 43 44 43 43 44 44 45 48 50 51 54 58 63 66 67 68 67 67 66 63 60
16 18 24 31 34 33 32 35 35 36 45 55 51 41 36 35 31 29 28 30 34 31 23 23 26 25 23 26 27 27 27 28 30 31 31 29 29 29 29 29 27 26 24 23 24 25 26 26 26 24 25 26 27 29 33 41 48 46 38 34 36 38 38 39 39 38 39 39 39 39 38 35 36 38 40 42 44 46 48 51 55 57 56 55 56 57 57
15 16 19 26 34 37 35 35 35 36 40 45 41 35 32 29 25 26 29 32 34 29 22 22 24 23 22 24 26 31 32 27 24 28 32 31 28 27 27 28 27 26 25 23 23 24 26 27 26 25 26 27 30 32 37 40 40 38 34 33 34 35 36 36 35 34 34 34 34 34 34 33 34 35 36 37 37 37 38 39 42 44 43 41 43 45 44
16 16 14 18 28 37 37 36 37 37 39 44 42 32 26 26 25 25 30 35 32 25 22 22 21 23 28 27 24 28 32 25 17 22 29 30 27 24 23 24 25 26 25 24 22 22 24 24 25 27 27 28 32 37 40 38 33 33 33 33 32 33 33 31 30 30 30 30 31 32 33 34 33 33 35 36 35 36 36 35 34 35 36 37 40 41 40
15 16 17 16 19 26 32 39 42 42 44 49 45 32 25 27 27 25 32 38 32 21 19 21 21 23 30 29 23 26 29 24 19 21 24 26 26 22 20 22 25 27 27 23 21 22 23 23 25 27 27 28 34 39 38 33 30 32 34 33 32 33 31 30 32 32 30 30 31 31 32 33 33 33 34 35 35 36 35 34 34 34 35 37 38 39 40
17 18 16 13 17 27 37 44 48 50 48 47 42 33 27 27 26 24 30 38 37 29 21 18 18 21 24 23 22 25 25 23 22 22 21 22 23 20 19 22 25 26 25 21 18 22 25 23 23 26 28 31 35 35 32 30 31 34 36 36 35 33 31 31 34 33 32 33 34 33 32 32 32 33 34 34 35 35 35 35 35 34 35 37 38 38 38
19 15 16 25 40 48 47 47 51 54 49 43 37 31 27 27 29 30 31 33 35 33 26 19 18 21 20 17 20 25 25 21 21 21 19 20 21 19 18 21 24 24 24 22 22 24 25 25 26 28 31 34 35 32 31 33 34 34 35 34 34 33 34 35 35 35 36 37 35 34 33 32 32 34 34 34 34 35 35 35 35 34 36 38 37 37 38
14 17 35 51 54 47 43 45 47 43 37 36 36 35 32 31 31 30 28 26 27 29 27 22 22 23 21 18 23 30 28 22 19 19 19 19 19 19 19 21 23 23 23 25 27 26 25 26 29 30 31 32 33 34 34 34 34 34 33 31 31 32 33 35 36 36 35 35 34 33 33 33 33 34 34 34 35 35 34 35 36 36 37 38 38 39 40
20 39 59 61 50 44 44 41 34 30 33 39 41 37 33 30 28 26 24 23 23 25 25 22 21 23 23 21 24 32 33 26 18 17 20 22 22 20 19 20 22 22 22 25 27 27 26 28 30 30 31 31 31 32 32 31 31 32 32 31 32 33 31 33 37 37 34 31 32 33 34 34 35 34 34 35 36 36 36 37 36 36 37 39 40 41 40
41 54 54 48 45 46 40 29 28 37 42 39 34 31 29 27 26 26 25 24 24 25 25 24 25 29 28 23 21 26 34 32 22 16 19 25 26 22 20 19 20 22 25 26 25 24 27 30 30 30 31 30 28 28 29 28 29 31 31 32 35 34 31 31 35 36 32 30 31 33 34 35 35 35 35 36 36 36 38 38 37 38 40 41 43 44 43
62 57 47 45 48 46 39 34 38 43 39 31 27 28 29 28 27 24 24 25 27 27 26 26 27 29 29 25 21 23 31 35 27 18 18 24 25 23 22 21 21 24 27 26 22 21 24 28 29 29 29 29 28 28 29 30 31 33 34 35 36 35 33 32 33 33 31 30 32 33 35 36 36 36 36 37 37 37 38 39 40 41 41 42 44 46 46
66 57 52 51 48 44 42 40 37 32 28 27 29 28 26 27 28 25 24 25 26 26 27 26 26 26 29 29 26 25 30 33 27 19 19 23 24 23 20 18 20 26 29 24 20 20 24 28 30 31 30 29 29 29 30 32 33 33 35 37 37 36 35 34 33 32 31 30 31 34 36 37 37 37 37 38 38 38 38 40 41 43 43 44 44 44 44
51 46 44 42 40 39 37 32 28 28 27 27 31 35 32 28 25 23 24 24 24 26 31 33 31 29 31 32 29 28 31 32 27 20 19 22 22 21 19 19 23 28 28 22 21 24 27 28 29 31 30 30 30 30 31 33 34 34 36 38 37 37 36 34 33 33 32 31 32 36 38 38 38 38 38 39 39 39 40 41 41 43 45 45 44 43 44
40 40 39 34 31 33 32 28 27 31 30 27 30 36 36 31 26 23 24 25 26 28 32 33 30 28 30 30 28 26 27 27 24 22 23 23 21 20 22 24 26 27 25 22 23 26 25 23 24 28 30 30 30 31 32 33 35 36 37 37 36 36 36 35 34 35 34 33 34 37 38 38 39 40 39 39 39 39 40 41 42 44 46 46 44 44 46
43 40 39 36 33 32 33 31 28 28 28 26 24 24 26 28 26 23 22 25 26 27 28 27 26 27 29 29 27 24 23 23 23 23 23 22 22 24 25 24 23 23 24 25 27 28 26 23 23 29 32 31 30 32 33 33 35 36 37 38 37 37 36 35 35 34 35 35 36 37 37 37 38 39 39 40 41 40 40 42 43 44 46 47 46 46 47
46 33 31 35 37 34 31 29 26 23 21 20 18 17 18 19 20 21 24 26 25 26 27 27 26 26 28 27 25 24 23 23 24 23 21 23 28 30 27 23 24 26 29 30 31 30 28 24 24 28 31 30 29 32 33 34 35 36 37 39 39 37 36 36 35 35 36 37 37 37 37 36 36 38 39 41 41 41 41 42 44 44 46 47 47 47 50
40 28 27 30 31 28 26 25 23 21 18 17 17 19 19 20 23 27 28 26 24 26 28 28 26 26 27 26 25 24 22 23 25 25 23 26 30 30 26 26 29 31 32 35 34 28 23 23 25 29 30 30 31 33 34 34 35 37 38 39 41 40 38 37 36 36 38 38 37 37 37 37 38 39 40 40 41 42 43 44 45 46 47 48 48 50 53
32 28 30 28 25 25 24 22 20 20 21 22 22 24 25 26 28 28 27 25 27 30 31 29 27 26 26 25 24 23 22 25 30 29 25 26 31 32 31 33 33 29 27 30 28 22 19 24 28 30 32 35 37 37 36 36 37 38 39 40 42 41 40 39 40 41 40 40 39 39 39 40 41 42 42 41 41 42 43 45 46 48 50 51 50 51 54
30 29 29 24 21 21 19 18 19 20 22 23 23 23 24 26 28 30 30 28 28 30 29 27 26 26 26 25 25 25 25 27 29 29 27 28 33 35 36 38 39 33 26 22 20 19 23 29 32 32 35 39 39 37 37 38 40 40 40 41 42 42 41 42 44 45 45 43 42 42 43 44 45 43 42 44 44 44 46 49 51 51 52 52 51 51 53
32 30 25 22 23 22 19 20 22 21 20 21 22 22 24 26 30 33 32 29 28 29 28 26 25 25 25 26 28 29 28 26 25 28 31 31 30 30 33 36 37 32 23 18 20 25 30 33 35 35 38 40 38 37 38 41 41 41 42 43 42 42 43 44 46 47 47 45 45 47 48 47 45 43 44 47 49 48 49 52 53 53 54 55 54 54 55
35 31 25 25 27 24 20 21 22 20 20 21 22 24 27 30 31 33 32 30 29 29 26 25 25 26 28 31 34 34 31 27 25 28 31 29 25 26 31 32 28 22 19 21 26 29 30 32 35 37 38 40 39 37 39 42 43 42 42 43 42 43 44 46 46 47 48 47 49 50 50 48 46 46 47 49 50 49 48 48 49 52 55 58 57 56 56
32 28 25 26 26 22 20 22 22 20 20 22 25 27 29 31 34 36 34 30 28 27 25 23 25 27 31 33 32 30 29 31 31 31 31 28 24 23 24 24 22 22 24 26 27 28 30 33 37 37 38 39 39 39 40 42 43 42 42 43 44 45 47 48 48 48 48 47 48 48 47 46 47 48 48 48 49 49 47 45 45 48 53 56 57 55 55
Wind_Speed
8 8 6 5 6 5 5 5 5 4 2 3 4 3 8 8 5 9 14 11 9 7 5 5 7 5 1 1 1 2 2 5 4 3 6 5 4 4 5 5 6 6 4 5 5 4 6 6 6 7 4 3 9 3 4 7 8 6 6 6 8 7 5 8 9 7 7 7 7 7 7 8 10 9 8 9 9 8 7 5 4 5 3 5 7 4 4
8 7 5 5 6 5 5 5 5 4 2 4 5 5 8 8 7 9 12 9 7 5 4 5 7 4 1 3 4 3 3 5 4 4 5 4 3 4 5 5 5 4 3 5 7 4 4 5 7 6 3 3 10 8 1 6 7 3 1 1 4 5 6 8 8 7 8 7 7 9 9 9 8 8 10 11 10 9 8 4 3 4 5 7 7 2 4
7 6 5 6 5 4 5 5 5 4 3 5 7 5 6 6 8 8 10 9 8 7 4 4 3 4 4 5 5 5 4 5 4 5 3 2 3 3 4 4 4 5 5 6 8 7 5 4 6 5 2 4 6 3 2 5 2 3 5 3 3 5 5 8 8 8 9 6 5 5 4 7 10 10 11 9 9 11 9 5 3 5 9 11 8 0 4
6 6 5 5 4 4 5 5 5 4 5 7 9 6 4 5 5 6 8 9 9 7 5 5 3 3 5 5 5 5 5 5 4 6 5 4 5 5 4 5 5 6 7 6 7 9 7 5 6 5 1 3 2 3 4 1 5 6 4 3 4 5 5 7 8 7 6 3 3 6 7 6 9 11 11 8 7 10 10 7 6 4 5 7 2 6 8
6 6 6 5 4 5 5 5 5 4 6 9 9 6 5 5 3 5 6 6 7 7 7 7 3 1 3 3 3 6 6 4 6 6 6 4 4 5 5 5 5 6 6 6 7 8 7 7 7 7 3 3 1 1 4 6 8 6 2 2 4 5 6 10 9 7 6 3 2 6 7 5 7 7 9 9 7 7 10 10 8 3 3 3 4 7 7
6 6 6 5 4 4 4 4 3 3 7 10 9 7 8 5 2 4 4 3 4 3 5 5 2 2 4 3 2 5 6 5 5 5 4 3 4 5 4 5 6 5 5 5 5 6 7 6 5 6 5 3 4 2 3 6 6 4 4 5 3 2 5 8 9 7 5 3 1 3 5 2 1 3 5 6 6 8 11 11 6 2 2 1 5 7 4
6 6 6 5 4 4 3 3 1 2 8 12 10 7 8 6 2 4 4 2 2 4 2 1 3 4 4 3 3 4 5 5 3 3 4 4 5 4 5 5 4 3 5 6 4 3 4 4 1 3 6 5 3 1 4 4 3 4 4 6 6 2 3 5 7 9 5 3 1 1 5 5 2 2 1 1 3 4 4 3 4 3 0 4 10 12 8
6 7 6 5 4 4 3 1 0 3 8 11 9 7 7 5 1 4 4 2 4 4 2 3 4 3 2 2 3 3 4 3 2 3 4 4 4 5 6 6 4 3 4 3 1 1 2 1 1 3 4 5 3 1 2 3 2 4 3 3 5 2 2 5 6 8 6 4 3 2 3 7 3 3 5 4 1 1 4 5 5 3 3 8 12 12 9
7 7 7 5 4 3 2 1 1 4 8 9 7 7 7 4 2 3 4 3 4 2 4 4 4 4 3 3 4 3 3 3 2 3 3 3 4 4 5 5 3 4 4 1 3 3 3 2 2 4 4 4 3 1 3 5 2 2 2 1 2 0 3 4 4 7 6 6 7 6 3 7 6 3 6 7 4 3 4 5 6 5 3 7 7 5 5
7 7 7 5 4 2 1 1 2 4 8 9 6 7 6 4 3 5 5 2 3 3 3 4 5 3 3 1 3 3 2 3 4 3 3 5 4 2 3 4 4 5 6 3 1 2 4 4 4 5 6 4 2 2 3 2 2 0 2 2 2 2 3 3 2 4 5 4 5 6 5 6 6 2 5 7 5 3 3 4 6 7 2 4 3 3 7
8 8 7 5 3 2 1 1 2 5 8 8 6 6 5 5 5 6 6 3 3 4 3 3 3 2 4 3 4 3 3 4 4 2 3 5 4 2 4 5 5 4 3 2 3 6 7 7 6 6 6 5 4 2 1 1 1 1 2 3 4 4 4 3 1 2 4 3 3 4 6 6 2 2 4 5 5 4 2 5 7 8 6 5 6 8 10
9 8 7 5 3 1 0 1 3 6 8 8 8 5 3 6 6 7 6 3 2 4 3 2 2 2 5 5 4 3 3 3 1 2 3 3 2 3 4 4 4 1 2 3 6 8 9 9 9 8 7 7 6 5 5 3 2 2 4 4 4 5 4 3 2 2 1 3 4 5 5 3 2 4 3 4 4 4 6 7 8 8 7 9 10 10 10
9 9 7 4 2 0 1 0 3 7 8 9 11 7 3 6 8 7 6 4 3 3 1 4 4 3 4 3 3 3 3 2 2 3 4 4 4 5 3 2 2 2 4 5 7 8 8 8 9 9 8 8 8 8 7 5 5 5 5 4 4 5 4 2 2 2 1 3 5 4 2 2 3 4 5 4 3 3 4 5 7 9 7 8 11 10 11
10 9 6 4 1 1 1 0 3 7 9 9 11 9 5 6 7 6 6 4 3 2 1 3 5 4 3 2 3 4 4 4 5 5 5 5 6 6 3 1 2 3 4 6 7 6 6 5 6 7 7 7 8 8 6 5 4 5 6 5 4 4 4 1 1 3 4 3 2 3 3 4 3 3 5 4 3 4 4 2 5 7 5 6 10 10 11
10 9 6 3 1 2 2 1 3 7 9 9 11 9 6 7 8 4 4 3 3 3 1 1 4 3 2 2 3 4 4 4 4 5 6 5 5 6 5 3 3 4 5 6 6 5 4 5 5 5 5 6 6 6 5 5 5 6 6 6 5 6 5 3 2 3 4 3 3 4 5 3 4 5 5 3 1 3 5 2 4 5 5 7 9 10 11
10 8 6 2 0 2 2 3 5 7 9 10 11 8 5 8 10 5 4 3 2 2 1 5 4 1 2 1 2 3 2 1 2 3 5 6 6 6 4 3 4 4 6 7 6 4 4 5 5 4 4 4 3 3 3 4 5 7 7 7 7 7 6 4 3 3 3 3 4 4 3 3 5 6 5 5 3 2 3 2 3 4 5 7 9 10 11
10 8 6 3 1 1 3 4 6 8 9 11 11 7 4 8 11 6 4 2 3 4 5 5 0 5 3 2 1 1 3 2 2 3 2 2 3 4 4 3 4 5 7 7 5 5 5 5 4 4 4 2 0 2 3 2 4 6 7 8 7 6 6 5 5 5 4 5 3 2 3 4 6 8 7 6 4 2 3 2 2 4 5 9 10 12 12
10 8 6 3 2 2 3 5 7 9 9 9 10 7 4 8 11 7 3 3 4 5 6 4 2 1 3 4 3 2 3 2 1 2 3 1 1 1 1 2 3 5 6 6 4 4 6 4 3 3 2 0 0 2 1 1 3 3 3 5 5 3 3 4 4 3 4 6 2 4 4 3 8 10 7 6 5 3 1 1 2 5 9 11 11 11 10
11 9 6 4 3 3 3 4 6 7 7 8 9 6 4 8 12 8 3 3 5 7 6 4 4 7 6 4 3 3 2 1 2 3 2 0 2 1 1 2 3 3 5 5 4 3 5 5 2 3 1 1 1 1 1 2 2 3 3 1 3 1 1 2 3 2 3 3 2 5 5 5 13 13 7 7 5 1 2 3 2 8 12 13 12 12 12
11 9 7 5 4 3 4 4 6 7 8 9 9 5 6 11 13 7 3 5 10 11 8 5 6 7 6 5 5 5 4 3 5 6 3 2 2 1 2 2 2 3 4 4 4 3 3 3 1 1 2 2 1 0 2 5 7 6 4 4 4 3 2 1 2 2 1 1 2 3 4 7 17 13 5 7 6 1 3 3 7 12 12 13 13 13 16
11 9 7 5 4 4 5 6 7 8 9 12 11 7 7 12 12 7 6 8 11 11 8 7 8 9 9 9 9 8 8 7 8 8 6 5 3 1 2 0 1 1 1 2 2 2 2 1 1 2 3 3 1 1 3 6 7 8 6 4 5 6 4 1 3 4 2 2 3 3 2 7 14 11 5 6 8 5 3 4 12 13 12 14 16 15 18
11 9 7 6 5 6 7 9 10 11 13 14 13 9 9 12 11 9 9 10 11 12 11 10 10 11 10 10 9 9 9 9 8 8 8 6 3 2 1 2 3 3 3 2 1 1 1 0 2 4 4 3 1 2 4 3 5 7 8 4 4 6 6 7 7 5 5 6 5 4 5 7 11 12 9 8 10 10 11 12 13 13 13 15 18 18 20
11 10 8 7 6 7 9 11 12 12 14 14 12 10 12 13 12 11 12 14 16 15 12 10 10 10 10 10 9 9 8 9 9 8 8 7 4 5 6 6 4 4 4 4 4 2 2 3 3 5 5 4 4 4 6 6 5 7 8 7 6 6 7 8 7 6 9 11 10 8 9 11 12 13 12 11 13 17 19 18 16 15 16 18 19 22 21
11 10 8 7 7 8 10 11 10 9 11 12 11 12 14 15 14 13 14 14 14 13 10 9 9 9 9 9 8 7 8 8 8 9 10 10 7 5 7 7 5 4 6 7 6 5 6 6 5 7 5 2 1 5 7 7 5 5 8 8 7 7 8 8 6 5 5 7 10 10 10 11 12 13 14 15 16 19 22 23 22 20 20 21 21 21 20
10 10 8 7 8 9 11 11 8 8 9 11 13 14 15 14 13 12 11 10 10 10 8 8 9 8 8 8 9 8 8 7 7 9 11 11 9 7 8 8 8 8 7 6 4 6 9 6 5 7 6 2 2 5 7 7 5 5 6 5 5 8 11 10 10 10 8 8 11 15 16 16 14 13 13 14 16 19 22 24 25 24 22 21 20 19 18
11 10 9 9 10 11 12 11 9 10 12 15 14 12 12 14 13 10 8 9 11 10 8 8 9 9 8 9 10 9 8 7 7 8 10 10 11 12 10 9 8 8 8 8 8 10 11 7 5 6 6 6 7 7 7 8 9 7 8 7 8 10 10 8 10 11 10 10 12 14 16 17 16 15 15 15 16 19 21 24 26 26 23 22 21 19 17
12 12 11 11 12 13 13 12 11 12 15 16 14 10 10 12 12 8 6 7 7 7 7 8 10 10 10 12 11 9 9 8 7 8 9 9 10 10 9 8 8 9 10 11 13 13 12 10 7 7 8 10 12 10 10 11 11 8 8 9 10 10 8 7 8 8 6 7 9 11 11 12 14 15 17 18 19 22 23 24 24 24 22 22 22 21 19
13 13 12 12 13 14 14 14 13 15 16 14 11 8 7 9 10 9 7 5 4 6 10 11 11 10 10 12 11 11 11 10 9 9 10 10 10 10 9 9 10 11 12 12 11 10 9 8 7 9 9 8 9 11 11 12 11 9 8 8 10 10 8 8 8 8 9 12 15 16 15 15 16 17 18 18 19 21 22 22 21 20 19 19 19 19 17
13 13 13 12 13 14 15 14 14 15 16 13 9 7 8 9 8 7 6 7 8 11 13 12 9 7 7 9 10 12 13 12 12 12 12 12 12 12 12 12 13 13 14 14 12 11 10 9 9 10 6 3 3 7 9 9 9 9 10 14 16 17 17 16 16 15 15 16 17 17 17 17 17 17 17 16 16 17 18 18 17 17 16 15 15 14 13
12 12 13 13 13 14 15 15 15 15 16 13 10 8 9 8 4 4 8 12 11 10 11 10 8 7 8 9 10 12 12 13 14 14 14 14 14 13 13 14 14 14 14 14 13 12 11 11 11 10 7 6 4 7 7 8 9 10 12 17 19 19 19 19 18 17 18 18 18 18 18 18 17 16 16 16 15 15 16 16 15 15 14 12 11 10 9
12 12 12 13 12 12 14 15 15 15 15 11 8 7 7 6 6 9 15 15 10 8 10 11 10 9 9 8 8 10 12 12 13 14 14 14 14 13 13 13 14 14 14 14 14 12 11 10 10 10 11 11 9 8 7 8 9 10 13 17 17 18 19 18 18 18 18 17 17 17 17 16 16 15 15 15 14 15 15 15 14 14 14 13 11 9 8
12 12 12 13 12 12 13 14 15 16 13 6 2 2 6 10 14 17 17 13 9 9 11 10 7 6 7 7 7 9 9 10 11 11 11 12 12 13 13 14 14 14 14 14 13 12 11 12 11 12 13 14 11 8 7 8 9 10 13 16 16 16 17 16 16 16 15 14 14 14 14 14 14 14 14 14 13 13 13 12 12 12 12 12 10 8 8
12 12 12 13 13 12 11 12 13 14 11 4 3 7 11 15 17 17 13 8 6 6 7 6 5 4 5 8 9 6 3 6 9 10 9 9 10 12 13 13 13 13 12 11 11 11 11 12 12 12 14 15 12 8 7 9 11 13 15 15 15 16 16 15 14 13 12 11 12 12 13 14 13 13 14 13 12 11 11 10 10 10 9 9 8 7 6
11 11 11 13 13 11 11 11 12 11 9 5 6 11 16 16 14 12 10 6 4 4 4 4 5 5 5 7 7 2 2 4 9 9 7 5 6 9 10 10 10 10 9 9 10 10 10 12 13 11 12 14 12 8 7 11 14 15 15 15 14 14 14 13 13 13 13 13 14 14 15 14 13 13 12 11 10 9 9 8 8 7 6 6 6 5 4
11 11 12 12 12 12 13 13 11 9 7 6 9 13 15 13 11 11 10 5 2 4 5 5 6 6 5 5 5 3 3 5 8 9 7 6 5 8 9 8 7 6 5 7 9 8 7 9 10 9 9 10 9 7 7 12 15 15 14 13 12 12 12 12 13 13 13 13 13 14 13 12 12 11 11 10 9 8 7 6 5 5 5 5 4 3 2
11 11 13 14 14 13 12 10 8 6 6 8 11 14 14 12 10 9 6 2 1 2 5 6 6 5 4 5 6 4 3 7 9 9 8 7 6 7 9 8 6 5 5 6 8 7 4 3 5 7 7 7 8 9 11 13 14 14 12 12 11 10 11 12 12 12 12 12 12 11 11 10 10 9 9 8 7 6 5 5 4 3 3 4 3 2 1
12 14 16 16 13 10 7 6 6 7 9 12 14 14 12 11 9 6 3 1 1 1 2 4 3 4 5 7 7 4 4 6 7 6 7 7 6 7 8 7 5 5 7 7 6 6 6 6 6 7 7 7 9 12 13 13 12 12 11 11 10 9 10 11 11 11 11 10 9 9 9 8 8 7 7 7 6 4 4 4 3 3 3 3 2 2 2
15 17 16 11 8 6 5 6 7 9 12 15 15 12 10 9 8 4 3 3 3 1 1 1 5 6 6 8 7 3 2 4 6 5 5 6 5 5 5 4 2 2 4 5 4 4 7 8 6 6 8 10 12 13 11 11 11 10 9 9 8 8 9 9 9 9 8 8 8 7 7 6 6 5 5 5 4 3 3 3 3 2 2 2 2 3 3
17 14 9 5 4 4 5 8 12 14 16 16 12 8 6 7 6 4 3 4 5 3 2 3 6 6 5 7 6 3 1 2 5 6 4 2 1 2 3 3 1 2 4 5 2 1 4 6 5 5 7 10 11 11 10 9 9 8 7 6 6 6 6 7 6 5 5 6 7 6 6 5 5 4 4 3 3 2 2 2 2 2 2 2 2 2 3
13 8 4 3 5 5 8 15 18 16 12 10 7 5 5 5 3 3 4 4 4 3 2 3 6 5 4 6 8 6 2 2 1 5 6 3 1 0 3 3 2 3 4 4 3 3 3 5 6 5 6 8 9 10 10 9 8 7 6 5 4 4 5 5 6 5 5 6 6 6 5 5 4 4 3 3 2 2 1 2 2 1 2 2 2 2 2
8 5 4 7 9 10 14 17 15 9 6 6 5 3 3 3 2 3 4 4 3 3 2 5 7 6 3 5 8 7 3 4 5 7 8 4 1 0 3 4 2 2 3 4 4 4 3 4 5 5 7 9 11 11 10 9 8 7 7 6 5 4 4 5 6 6 5 5 5 5 5 5 4 3 3 2 2 2 2 2 2 1 1 2 2 2 1
9 8 8 10 12 14 14 12 8 4 4 4 3 2 2 2 3 4 4 2 3 5 5 5 7 7 6 6 7 6 4 2 2 4 5 3 1 0 3 4 2 1 4 5 4 4 3 4 5 6 9 12 12 10 9 9 8 7 7 6 5 5 4 5 6 7 6 5 5 5 4 4 3 3 3 2 2 2 2 2 1 1 1 1 1 1 1
12 12 12 13 12 11 8 6 5 3 1 1 2 2 2 2 4 4 3 1 4 7 6 4 7 8 7 5 5 6 5 3 1 1 4 4 2 1 3 3 2 3 5 5 4 3 4 4 4 7 11 13 12 11 10 9 8 7 7 6 5 5 5 5 6 6 6 5 5 5 4 3 3 2 2 2 2 2 2 1 0 0 1 1 1 0 1
15 14 12 10 8 6 4 3 2 2 1 2 3 3 4 5 5 4 4 5 7 8 8 8 8 8 6 4 5 7 6 4 2 3 4 5 3 2 2 3 2 4 5 4 3 3 4 3 5 11 14 14 12 11 10 9 8 7 6 5 5 4 4 4 5 6 6 6 6 5 4 3 3 2 1 1 1 1 0 0 1 1 1 1 1 1 2
12 10 8 5 3 2 2 2 2 2 2 3 4 4 4 5 5 4 6 8 9 10 11 11 9 8 7 6 5 5 4 4 3 3 3 4 3 2 2 3 3 3 4 4 3 4 4 4 8 14 16 14 12 12 10 8 7 7 6 5 4 3 3 3 4 5 6 7 7 6 4 4 3 2 1 0 0 1 2 2 2 2 2 2 3 3 4
8 8 7 4 1 2 2 2 2 3 3 4 5 5 5 6 6 6 7 9 11 12 12 10 9 9 9 5 3 4 5 5 4 3 3 4 3 2 2 2 3 3 3 3 4 4 4 5 9 13 15 14 13 12 10 8 7 6 5 5 3 2 2 3 4 5 6 7 7 5 4 4 4 3 3 2 2 3 3 4 4 4 4 4 4 5 5
6 7 6 3 1 2 4 3 2 3 4 5 5 4 3 6 8 9 9 10 12 12 12 10 9 9 8 5 3 4 5 5 4 2 2 3 3 2 1 1 2 3 3 4 4 4 4 7 12 14 15 15 14 12 10 8 7 6 5 4 3 2 2 3 4 5 6 7 6 5 4 4 4 4 4 4 5 5 5 5 6 6 6 5 5 5 6
6 6 3 2 3 3 4 4 3 3 3 4 4 4 5 8 10 10 10 11 12 12 11 10 9 7 6 5 4 4 5 6 5 2 1 2 3 3 2 2 2 3 3 4 4 4 5 10 14 15 15 16 15 13 10 8 7 6 5 3 2 2 2 3 4 5 5 5 5 5 4 4 4 4 5 5 6 6 6 6 7 7 7 6 6 6 6
6 4 2 2 3 4 4 5 5 5 5 5 5 6 8 9 11 11 11 12 12 12 11 10 8 5 4 4 3 3 5 5 3 2 2 3 3 3 2 3 4 4 4 4 4 4 8 13 16 16 17 17 16 12 9 8 7 6 4 3 3 2 3 4 5 5 5 5 5 4 4 4 4 4 5 5 5 6 6 6 6 7 7 7 7 7 7
5 3 3 3 3 3 5 5 4 4 6 7 8 9 9 10 12 12 11 12 12 10 8 7 5 4 4 4 3 3 3 3 3 3 4 4 3 3 3 4 4 4 4 4 5 8 12 15 17 17 16 16 14 11 9 8 7 5 4 3 3 3 3 4 5 5 5 5 5 4 4 4 4 4 4 5 5 6 6 6 7 7 7 7 7 8 7
4 3 4 4 2 3 6 5 4 4 6 8 9 9 10 11 13 13 11 12 12 9 7 6 5 3 3 3 3 2 3 3 3 4 4 3 3 4 4 4 4 4 5 7 9 11 13 15 16 16 15 14 12 10 8 7 7 5 4 3 3 3 4 5 5 5 5 5 5 5 5 5 5 5 5 5 6 6 7 7 7 7 7 7 8 8 8
5 4 4 4 3 4 5 4 4 6 8 9 9 10 10 12 14 13 12 12 11 8 6 6 6 3 3 3 3 3 4 3 3 3 4 3 2 3 3 3 5 7 9 10 11 13 14 15 16 15 13 11 10 9 8 7 6 5 4 4 4 4 5 5 5 4 4 4 5 5 5 5 5 5 5 6 6 7 7 7 7 6 7 7 7 7 7
Wind_Direction
295 292 289 280 272 282 296 304 304 292 257 191 172 207 225 210 149 150 168 163 155 185 219 198 208 225 86 8 214 128 208 230 226 208 206 222 228 223 242 253 254 251 257 279 273 261 268 259 249 241 167 37 323 315 155 231 239 218 224 219 204 207 234 237 222 223 242 227 194 203 224 232 234 231 227 229 230 235 240 247 262 262 277 299 278 228 134
294 286 277 270 266 281 296 297 296 286 251 207 194 208 219 192 137 155 180 177 175 202 231 205 201 187 149 245 214 180 235 234 231 231 211 212 231 235 252 251 245 254 256 266 271 274 275 264 260 265 119 141 273 285 212 231 236 212 283 261 199 205 218 224 225 222 221 208 192 199 209 218 232 232 229 234 239 237 231 228 289 284 244 242 260 264 110
286 273 262 260 262 284 291 294 292 268 242 219 196 197 222 189 140 158 183 185 201 230 276 280 224 163 178 232 212 190 217 224 253 272 244 227 261 256 260 261 257 264 262 260 264 260 254 259 267 277 82 147 214 219 199 245 261 51 13 354 212 230 235 224 229 226 218 211 213 226 225 218 221 222 224 233 242 246 243 225 234 248 239 246 257 109 107
274 261 256 254 260 285 286 292 291 254 230 219 195 182 224 209 156 161 173 185 215 241 269 272 259 188 189 216 220 217 215 185 202 251 241 219 251 261 263 271 266 257 261 265 261 252 237 234 253 257 153 116 152 121 126 80 32 42 14 325 232 238 256 244 245 253 256 256 273 303 316 272 238 219 207 214 242 264 271 250 233 240 252 265 248 140 161
264 252 251 249 259 284 286 292 291 247 220 212 195 190 238 240 185 168 168 181 209 227 224 217 223 221 200 208 219 219 219 183 164 208 234 218 232 249 249 261 262 249 258 270 267 265 248 231 249 261 225 142 154 153 114 68 28 21 10 295 253 244 245 240 245 264 274 268 287 306 317 312 287 249 210 207 223 259 268 251 246 274 271 270 90 119 163
255 243 239 242 257 281 287 295 297 238 207 195 186 197 225 232 159 166 193 205 190 196 215 201 158 185 205 213 240 218 214 204 170 184 228 214 209 234 233 240 256 254 256 261 256 264 262 244 247 269 267 193 172 174 82 58 31 27 51 40 15 283 255 243 236 239 254 252 253 325 323 316 272 235 214 200 204 235 250 249 262 311 276 225 121 132 156
241 232 228 236 259 274 283 304 308 209 190 182 184 202 214 218 157 156 206 249 96 81 62 205 190 201 210 205 223 228 217 210 191 188 223 216 206 231 240 230 241 268 271 261 247 265 277 252 225 304 303 289 235 150 53 31 26 58 60 43 45 37 299 283 246 226 224 246 222 360 303 271 179 122 337 203 188 237 267 291 317 321 62 118 132 133 116
223 222 223 231 257 266 274 300 173 187 184 181 195 216 220 230 175 152 187 180 99 98 138 213 202 186 233 216 187 225 232 205 207 222 223 226 217 232 247 237 234 275 290 272 204 58 5 281 278 338 315 293 295 75 162 240 313 64 80 43 49 55 326 334 284 238 210 210 220 182 270 268 225 95 28 4 359 9 16 18 1 350 102 115 121 117 98
211 215 221 232 254 266 268 248 156 189 191 186 208 231 236 263 276 208 210 153 119 151 177 201 204 174 197 214 174 202 226 186 218 245 223 227 230 235 252 255 257 266 267 237 112 76 26 341 311 317 296 284 326 354 200 214 246 84 129 132 70 330 291 326 303 262 227 204 217 208 225 271 248 147 39 2 343 15 26 25 22 29 105 140 141 128 121
204 210 220 234 250 259 254 210 166 197 192 184 213 238 234 236 220 228 246 174 161 209 179 187 214 160 103 116 153 183 217 182 195 231 235 227 223 240 264 266 272 255 243 239 57 13 339 328 318 302 281 267 283 302 291 293 300 233 152 175 168 174 263 287 293 267 241 202 209 208 218 261 253 166 39 7 346 344 17 45 30 20 36 174 172 115 120
199 206 218 234 244 242 235 205 190 201 194 189 211 228 230 237 220 216 227 183 164 223 201 180 207 128 116 160 177 184 217 207 195 215 243 220 189 191 246 249 256 253 252 301 309 295 292 293 295 285 269 257 244 223 227 295 303 261 196 195 172 168 220 246 252 256 230 156 131 182 208 227 230 57 20 15 11 351 28 59 33 23 42 76 91 103 122
198 204 216 231 238 227 196 221 216 206 202 199 194 189 232 250 234 220 217 171 140 229 226 99 67 120 153 179 202 200 203 224 254 310 284 250 199 222 244 250 251 261 28 337 293 283 273 261 259 257 244 236 232 214 192 170 157 188 209 209 185 178 201 215 218 261 261 133 158 195 209 216 76 60 28 22 30 43 75 70 38 30 58 84 95 106 117
198 203 216 227 233 298 58 245 220 205 204 199 185 180 224 232 221 230 229 188 153 209 185 88 102 147 152 168 219 238 234 247 254 257 261 255 240 234 234 257 281 349 5 314 287 280 268 250 243 242 230 217 217 213 191 163 161 175 179 198 210 194 185 195 211 221 202 188 201 203 163 91 75 55 33 23 25 52 86 91 52 29 44 95 105 103 103
195 201 215 226 230 20 49 71 206 197 198 195 186 183 197 210 217 248 256 220 150 120 97 117 138 154 158 188 239 249 237 227 228 233 237 241 246 245 234 247 300 326 329 302 276 262 257 244 233 235 225 210 212 209 181 148 169 187 172 170 182 167 147 114 153 195 210 203 156 121 136 134 104 49 33 27 13 360 352 65 73 36 30 98 115 116 116
194 198 207 217 242 25 49 93 158 178 186 190 186 180 182 200 210 245 286 259 150 141 208 66 99 135 171 222 268 266 229 204 216 218 202 206 241 246 235 247 289 304 301 288 266 248 246 239 232 232 222 213 214 210 187 166 170 174 176 183 173 152 136 119 141 217 237 216 151 152 174 146 75 57 57 44 360 333 325 322 96 59 51 106 125 126 123
191 194 197 200 142 42 63 96 127 149 164 172 171 171 193 200 190 200 274 261 157 140 83 53 52 247 207 155 239 284 305 228 252 246 198 193 225 233 220 241 280 283 272 264 253 245 243 233 228 234 229 227 235 231 219 207 176 154 159 178 178 162 146 144 195 230 254 245 212 191 169 103 59 37 26 18 8 335 302 253 121 71 72 112 127 128 129
188 189 186 170 123 76 75 98 117 125 138 151 150 150 207 196 175 185 242 217 115 85 79 77 115 243 229 112 150 299 333 322 273 284 268 192 203 214 204 217 239 246 250 254 251 242 240 233 223 222 214 178 261 271 254 203 160 142 148 164 178 185 174 185 233 241 258 263 237 108 80 72 39 6 356 7 5 313 271 222 108 78 101 120 124 129 133
186 183 174 155 130 110 96 107 117 117 126 141 135 131 190 179 159 167 205 159 117 94 90 75 358 356 55 46 49 33 343 313 256 256 268 256 126 184 236 254 239 220 222 238 248 239 242 249 223 208 225 41 77 265 297 122 127 102 114 145 150 166 184 203 234 248 267 258 205 96 89 47 6 348 348 358 329 272 262 6 87 94 109 118 114 111 112
183 176 168 156 140 118 102 114 124 120 126 138 130 130 173 158 146 154 180 149 127 109 100 87 56 56 55 47 53 58 39 333 320 302 261 206 52 20 316 288 260 218 211 231 241 234 246 252 206 158 170 171 175 189 24 57 80 39 5 83 109 82 256 222 233 290 307 257 166 112 110 37 355 340 346 358 332 212 57 10 134 120 114 117 109 99 100
180 172 165 160 146 118 98 106 119 124 138 143 131 132 170 157 147 148 138 124 125 113 96 88 82 69 54 48 40 25 25 10 338 332 349 60 49 298 241 206 198 197 200 220 225 225 250 252 222 110 104 98 69 206 105 78 65 54 31 33 42 6 311 124 69 355 341 142 111 113 118 20 355 344 351 15 13 19 344 8 111 116 117 117 102 96 109
178 172 169 167 154 124 106 107 111 119 133 134 122 119 151 152 142 127 115 123 126 116 99 85 82 74 61 54 45 29 22 16 359 348 358 33 55 268 262 359 46 228 222 231 221 214 246 248 103 80 86 83 357 305 121 104 78 58 50 64 46 360 328 77 51 349 335 91 66 51 47 7 3 11 40 31 21 14 350 92 112 116 118 110 98 97 111
177 174 175 176 160 133 123 120 117 120 125 123 117 121 140 143 134 122 117 116 111 105 102 96 87 79 70 61 50 39 32 27 22 5 342 344 28 69 40 45 31 7 359 335 279 191 166 93 94 104 108 111 99 39 47 84 93 56 39 58 69 40 56 85 75 46 52 65 59 46 38 28 28 39 47 37 42 64 83 97 109 116 111 105 106 110 111
178 177 179 182 166 143 138 133 124 122 122 116 112 124 136 135 131 124 117 112 110 109 107 103 96 84 69 58 47 39 32 28 32 31 6 348 16 72 70 59 38 21 29 13 329 326 64 72 81 95 92 89 107 91 58 61 88 73 59 73 94 97 104 99 92 103 92 66 52 52 53 49 49 51 52 53 67 85 91 85 84 94 100 105 113 115 112
178 179 179 180 167 150 150 148 133 125 129 125 120 126 131 130 130 127 121 118 118 116 105 89 82 71 57 51 45 37 33 26 28 42 36 12 7 61 68 44 30 46 58 37 6 22 65 73 76 82 76 36 65 102 92 82 90 95 90 88 83 85 96 92 84 108 107 54 41 49 55 56 59 62 63 64 76 92 95 88 82 87 95 104 112 112 111
176 176 175 175 168 160 160 157 136 118 130 134 131 132 134 134 135 132 128 127 124 117 106 87 76 68 58 56 50 36 35 36 31 41 43 28 24 54 65 54 57 67 53 25 24 83 90 88 89 89 87 61 55 85 93 92 91 88 86 89 88 84 84 82 74 75 84 87 81 74 67 64 64 67 68 70 78 88 92 93 95 97 98 102 106 109 111
169 167 162 162 164 162 161 158 144 129 129 127 125 131 139 140 137 128 120 121 115 108 106 100 90 81 68 60 52 39 38 52 56 54 57 57 59 66 69 70 75 73 55 42 57 78 85 84 83 82 75 72 77 82 86 87 87 81 72 78 95 97 93 94 93 91 98 107 100 88 75 64 60 65 75 81 86 89 91 96 102 104 103 102 102 102 103
161 158 152 150 157 159 157 154 149 144 141 131 120 123 142 149 146 132 115 117 117 112 113 111 106 96 74 59 54 51 52 65 77 75 68 65 65 66 68 75 83 83 80 77 74 78 82 79 76 82 87 86 85 85 85 86 84 79 73 75 84 95 105 112 105 98 97 92 84 83 81 71 68 76 84 88 90 92 94 97 100 102 104 107 106 102 99
155 153 148 146 150 154 155 155 152 153 152 140 123 120 139 152 153 143 124 104 103 119 121 118 118 111 81 59 55 58 62 68 77 81 78 72 71 71 71 75 80 79 81 84 82 80 80 76 80 91 92 88 85 87 87 85 78 69 67 70 74 85 100 104 95 91 96 96 91 88 90 91 92 94 96 93 90 90 92 93 95 96 101 107 108 103 98
153 151 149 147 148 151 155 156 154 157 158 148 129 121 127 138 154 160 136 105 99 115 122 118 115 106 76 60 62 66 69 74 78 81 82 79 77 77 76 76 78 78 78 80 80 78 73 65 70 79 65 24 73 98 91 83 77 70 69 74 77 82 87 91 94 98 100 102 100 97 98 100 101 101 101 98 94 92 92 93 94 95 97 101 102 101 96
153 151 149 148 147 149 155 157 154 155 157 153 145 138 133 136 167 189 149 128 119 121 124 118 107 97 80 70 73 76 76 78 79 79 81 80 79 80 80 81 82 82 81 80 80 84 84 76 75 77 54 29 74 105 95 86 85 82 79 79 80 82 85 86 91 97 98 99 99 98 100 104 105 102 98 95 95 97 97 97 98 98 98 99 99 98 96
155 154 153 150 145 146 152 157 157 155 154 155 163 166 154 143 147 152 145 134 122 117 119 114 111 111 98 75 72 82 85 84 81 79 79 79 78 78 79 80 80 78 80 81 80 83 86 85 86 85 68 60 79 100 98 93 94 89 88 89 87 87 89 90 92 96 98 101 102 100 101 104 105 103 101 99 99 100 100 101 104 105 103 101 101 100 100
154 154 153 151 147 146 147 152 159 161 162 167 187 151 141 141 144 149 147 134 115 118 125 123 122 121 106 91 88 91 92 92 89 84 82 82 83 83 81 79 77 76 78 81 80 79 79 78 80 83 77 75 86 98 95 94 98 97 96 95 92 92 94 94 95 97 99 103 105 104 100 99 99 101 104 103 101 100 100 104 110 113 108 102 102 104 106
149 151 153 153 151 148 143 147 158 163 165 157 84 106 133 145 149 150 146 128 114 127 133 130 130 125 121 123 117 99 88 110 105 92 81 82 90 94 90 86 83 81 79 81 85 88 88 84 82 81 80 82 89 95 93 96 103 104 102 98 96 96 97 95 96 97 97 98 101 101 100 100 101 102 103 102 100 100 100 100 107 114 109 99 96 99 101
143 145 148 151 153 150 141 138 143 148 147 133 118 131 143 148 150 150 143 122 107 121 128 130 127 121 138 152 140 80 6 118 119 106 90 83 97 106 105 99 91 82 78 88 98 97 93 92 91 85 83 88 93 96 99 104 107 107 104 101 100 99 97 94 92 90 89 92 96 98 101 105 105 103 102 101 98 98 99 99 103 108 105 99 98 101 105
141 139 141 146 150 147 138 128 125 129 133 130 136 147 152 154 157 156 150 140 124 124 131 142 140 131 144 156 140 96 49 91 106 108 103 88 86 103 109 104 94 83 79 94 101 96 88 93 97 95 94 98 98 99 108 114 114 112 109 106 104 101 97 95 93 93 94 98 101 103 106 107 105 102 101 100 98 97 97 96 94 96 100 98 94 92 99
137 136 137 136 133 131 131 130 128 135 142 142 146 153 156 156 156 152 147 178 281 132 146 165 161 145 141 132 126 137 134 107 103 112 116 100 86 99 111 106 90 84 90 96 98 93 79 82 98 101 100 99 99 104 113 116 115 113 111 109 106 102 99 99 101 102 102 102 104 106 106 103 102 102 99 96 95 93 92 90 84 85 98 102 97 89 71
139 135 130 125 119 114 122 140 149 150 149 148 148 149 146 146 149 146 139 157 137 123 188 196 155 113 109 116 127 166 184 141 122 122 121 111 99 100 110 111 104 101 100 92 85 82 79 82 94 101 97 99 105 110 114 117 116 114 113 112 110 107 105 105 106 107 107 107 110 112 109 104 104 104 101 98 93 86 84 87 76 67 76 84 68 43 20
139 132 126 125 129 126 129 149 159 154 146 142 141 141 146 154 155 143 126 140 148 161 304 101 117 119 119 120 129 168 203 154 140 130 119 120 119 109 104 105 113 132 111 94 78 79 85 87 94 99 101 108 114 115 116 117 117 117 118 117 114 114 117 121 121 118 116 118 120 120 119 115 111 107 105 99 92 80 68 63 58 58 67 67 45 18 359
136 131 130 150 159 135 135 153 152 143 138 138 139 144 163 172 163 145 139 147 151 159 158 118 126 134 133 129 132 131 86 147 154 148 140 137 148 167 157 134 125 152 130 114 126 165 111 103 111 117 113 117 121 121 122 122 119 119 123 123 120 122 127 132 132 123 114 116 119 118 117 116 114 112 106 93 86 83 65 47 59 72 59 50 42 13 352
138 142 151 142 124 119 137 145 140 134 136 149 154 158 176 183 171 163 176 171 150 152 169 131 118 109 106 130 139 130 66 358 79 134 138 128 9 206 159 135 139 169 146 125 156 200 147 123 131 132 125 131 134 131 127 122 113 109 112 117 126 142 149 147 144 135 119 114 116 114 108 105 106 108 103 84 66 77 76 62 72 81 50 37 29 3 358
153 162 142 116 115 126 135 137 135 133 145 160 158 152 170 177 156 164 186 181 148 129 136 141 141 137 127 136 142 139 109 19 40 97 118 112 13 165 124 112 145 189 132 118 155 181 151 140 149 134 124 135 141 137 129 123 114 107 104 101 107 128 149 159 160 157 146 131 128 125 116 108 103 100 87 61 41 63 82 91 93 82 41 27 24 14 32
171 162 139 123 125 132 134 137 142 145 143 148 152 157 163 160 163 185 208 199 138 147 160 152 142 136 119 105 109 119 122 100 81 115 122 110 20 147 118 122 180 180 112 126 166 174 145 150 153 128 127 140 145 142 136 131 122 110 103 98 97 110 134 154 164 169 169 156 141 137 130 119 114 101 77 64 72 81 82 95 103 79 4 357 18 40 105
151 142 133 129 134 141 143 145 151 151 142 158 159 157 166 182 185 191 203 162 145 157 159 132 119 124 124 108 94 99 112 129 141 111 116 124 140 138 125 142 168 118 118 150 181 162 149 169 157 135 142 151 152 147 140 134 125 116 108 102 97 100 114 139 156 166 175 173 159 151 147 137 127 110 67 68 98 104 86 84 85 359 324 316 328 212 173
137 135 133 134 143 154 154 145 151 176 201 180 173 171 177 188 197 192 173 166 166 160 154 153 153 151 148 139 124 122 131 151 145 97 108 132 153 151 137 142 126 113 136 177 186 150 155 171 140 137 148 156 154 149 145 137 132 130 121 110 104 102 108 132 154 162 172 179 171 162 159 153 144 133 91 83 108 122 94 147 285 303 298 275 263 219 203
144 145 140 132 143 172 161 150 190 218 203 185 196 198 178 179 195 185 152 153 158 154 154 163 165 149 134 136 144 148 155 161 146 133 144 156 151 130 119 126 128 139 169 187 165 144 155 152 135 142 153 159 155 152 151 144 138 137 128 116 110 102 104 132 159 167 173 177 175 174 180 182 178 177 177 152 277 294 290 269 265 269 264 256 253 237 222
164 164 150 130 119 242 207 167 182 205 196 185 196 203 190 179 174 153 139 146 153 153 153 156 151 140 139 142 141 141 147 142 134 142 164 152 126 99 89 119 146 177 191 181 163 163 171 161 150 154 160 162 156 153 152 149 147 146 139 127 115 99 110 144 162 167 169 173 176 182 193 199 203 215 231 251 269 283 284 272 262 259 257 257 257 247 232
174 172 167 150 152 203 209 193 177 183 183 181 185 186 155 135 130 129 139 150 150 144 143 143 138 136 141 146 138 133 134 127 120 140 172 144 119 115 141 163 179 190 179 168 175 183 168 155 158 162 163 160 155 153 155 157 155 149 143 134 117 106 133 152 160 166 170 176 184 194 204 214 224 235 249 266 275 280 279 272 263 257 254 254 257 251 237
173 172 186 178 160 182 205 199 173 158 157 158 152 140 130 128 129 135 145 148 143 138 138 138 134 132 142 160 164 141 122 116 117 126 136 119 117 130 159 175 180 184 175 177 193 190 149 145 154 161 159 153 151 153 157 162 159 152 149 147 140 133 144 154 162 170 177 185 194 205 214 223 232 243 256 268 274 277 275 269 261 256 252 251 253 252 247
171 170 205 210 187 190 193 185 173 163 156 149 148 157 160 150 139 136 139 144 146 148 148 147 147 149 147 148 148 134 130 139 149 145 138 144 152 162 170 166 165 177 195 198 186 150 133 140 151 157 153 149 151 158 162 161 160 161 160 157 155 158 162 165 167 173 184 192 199 208 219 228 235 245 255 264 272 274 272 264 256 251 250 250 253 255 256
175 181 209 212 202 181 181 189 187 160 149 152 160 168 164 146 137 141 149 150 147 147 149 153 162 163 143 137 149 157 150 150 150 151 161 177 179 165 165 171 174 184 196 180 141 131 137 147 153 154 150 149 155 163 164 161 166 174 176 171 177 184 180 173 175 182 191 199 206 213 222 232 241 251 260 270 276 277 275 270 264 260 258 257 257 257 258
197 219 215 220 222 172 174 189 191 160 156 162 166 165 156 146 144 149 153 149 148 152 157 152 147 145 144 151 161 154 138 138 154 167 172 176 162 157 172 188 181 163 152 141 135 139 148 153 152 148 147 151 160 166 165 164 171 181 184 188 197 196 185 181 188 195 198 206 217 223 229 239 248 255 264 275 279 279 278 275 271 268 266 262 260 258 256
201 204 193 198 202 181 177 186 172 157 156 158 157 154 152 148 146 145 149 156 164 171 160 144 143 153 161 155 146 136 140 157 180 172 152 147 168 181 174 152 136 132 133 137 141 144 145 146 146 147 151 157 163 167 167 169 176 189 197 198 196 191 184 183 190 196 201 210 219 224 232 242 248 252 262 271 274 275 276 275 273 273 270 264 261 260 257